Regional Weather Roundup
Issued by NWS Albany, NY

Home | Current Version | Previous Version | Text Only | Print | Product List | Glossary On
Versions: 1 2 3 4 5 6 7 8 9 10 11 12 13 14 15 16 17 18 19 20 21 22 23 24 25 26 27 28 29 30 31 32 33 34 35 36 37 38 39 40 41 42 43 44 45 46 47 48 49 50
000
ASUS41 KALY 030010
RWRALY

NEW YORK STATE HOURLY WEATHER ROUNDUP
NATIONAL WEATHER SERVICE ALBANY NY
700 PM EST MON MAR 02 2015

NOTE: "FAIR" INDICATES FEW OR NO CLOUDS BELOW 12,000 FEET WITH NO
SIGNIFICANT WEATHER AND/OR NO OBSTRUCTIONS TO VISIBILITY.

NYZ032-033-038>043-046>054-057>066-NYZ062>081-030100-
EAST


CITY           SKY/WX    TMP DP  RH WIND       PRES   REMARKS
ALBANY         PTCLDY    26  11  52 NW17G28   30.28R WCI  13
GLENS FALLS    MOCLDY    28   8  43 W10G21    30.22R WCI  19
POUGHKEEPSIE   CLEAR     30   8  39 NW13      30.25R WCI  20
NEWBURGH       CLEAR     28  12  50 NW22G36   30.24R WCI  15
MONTGOMERY     CLEAR     29   8  41 NW15G25   30.25R WCI  18
WHITE PLAINS   CLEAR     30  10  43 NW21G26   30.20R WCI  17
ISLIP          CLEAR     32  13  45 NW15G22   30.20R WCI  22
NEW YORK CITY  CLEAR     35  12  38 NW20G29   30.25R WCI  24
CENTRAL PARK   CLEAR     35  10  35 NW12G20   30.27R WCI  27
$$

NYZ005>009-017-018-044>046-055-056-030100-
CENTRAL


CITY           SKY/WX    TMP DP  RH WIND       PRES   REMARKS
FULTON         CLEAR     23  10  57 NW15      30.34R WCI  10
SYRACUSE       MOCLDY    21  13  71 MISG      30.33R
ROME           PTCLDY    21  11  65 W16       30.32R WCI   7
ELMIRA         CLEAR     24  10  55 W8G16     30.34R WCI  15
BINGHAMTON     MOCLDY    20   9  62 NW15G24   30.24R WCI   6
MONTICELLO     CLEAR     21   9  58 NW22G37   30.20R WCI   5
$$

NYZ026>034-041>043-030100-
NORTH


CITY           SKY/WX    TMP DP  RH WIND       PRES   REMARKS
WATERTOWN      CLEAR     22  10  60 W14       30.32R WCI   9
FORT DRUM      NOT AVBL
MASSENA        CLEAR     21   5  50 W10       30.29R WCI  10
SARANAC LAKE   CLEAR     16   7  67 VRB6      30.13R WCI   7
PLATTSBURGH    PTCLDY    23   9  55 NW16G28   30.23R WCI  10
$$

NYZ001>004-010>016-019>021-030100-
WEST


CITY           SKY/WX    TMP DP  RH WIND       PRES   REMARKS
NIAGARA FALLS  MOCLDY    19   9  65 W9        30.41R WCI   8
BUFFALO        PTCLDY    22   9  57 W12       30.41R WCI  10
DUNKIRK        PTCLDY    19  14  81 SW9       30.45R WCI   8
JAMESTOWN      CLOUDY    18   9  68 W9        30.36R WCI   6
WELLSVILLE     PTCLDY    17   7  64 NW15G28   30.30R WCI   2
ROCHESTER      PTCLDY    23   8  52 W9        30.38R WCI  13
PENN YAN       CLOUDY    24  10  55 W13G18    30.34R WCI  12
$$

             KEY
       WCI = WIND CHILL INDEX
       VSB = VISIBILITY
       HX  = HEAT INDEX
$$



USA.gov is the U.S. government's official web portal to all federal, state and local government web resources and services.